Location: Newark
(0.5300°S, 127.4800°E)
Time: 20:23:19
(UTC+00:00)

Vanguard 2 - All Passes

Search period start: 23 September 2019 00:00
Search period end: 03 October 2019 00:00
Orbit: 554 x 2937 km, 32.9° (Epoch: 23 September)

Date Brightness Start Highest point End Pass type
(mag) Time Alt. Az. Time Alt. Az. Time Alt. Az.
23 Sep - 00:18:23 10° NNE 00:19:07 10° NNE 00:19:50 10° NE daylight
23 Sep - 02:23:45 10° WNW 02:27:43 74° SW 02:32:01 10° SE daylight
23 Sep - 09:02:29 10° SSE 09:03:47 10° SSE 09:05:08 10° SSE daylight
23 Sep - 11:05:57 10° SSW 11:17:55 32° SSE 11:32:41 10° E visible
23 Sep - 13:14:47 10° SW 13:31:16 77° SE 13:48:41 10° ENE visible
23 Sep - 15:27:41 10° WSW 15:44:36 49° NW 15:59:05 10° NE visible
23 Sep - 17:48:35 10° WNW 17:58:06 18° NNW 18:05:57 10° N visible
24 Sep - 00:34:04 10° NNW 00:37:26 19° NNE 00:40:23 10° ENE daylight
24 Sep - 02:42:05 10° W 02:45:43 34° SSW 02:49:42 10° SE daylight
24 Sep - 09:17:39 10° S 09:22:59 14° SSE 09:29:14 10° SE daylight
24 Sep - 11:23:26 10° SSW 11:36:23 41° SE 11:52:34 10° E visible
24 Sep - 13:32:52 10° SW 13:49:33 87° NW 14:06:57 10° NE visible
24 Sep - 15:47:07 10° W 16:03:02 39° NW 16:16:38 10° NNE visible
24 Sep - 18:10:55 10° NW 18:17:11 13° NNW 18:22:38 10° N visible
25 Sep - 00:51:17 10° NW 00:55:36 36° NNE 00:59:16 10° E daylight
25 Sep - 03:01:02 10° WSW 03:03:50 18° SSW 03:06:51 10° SSE daylight
25 Sep - 09:34:22 10° S 09:41:54 18° SSE 09:51:19 10° ESE visible
25 Sep - 11:41:01 10° SW 11:54:43 53° SE 12:11:55 10° ENE visible
25 Sep - 13:51:12 10° WSW 14:07:53 72° NW 14:25:01 10° NE visible
25 Sep - 16:07:07 10° W 16:21:38 30° NNW 16:34:05 10° NNE visible
25 Sep - 18:35:33 10° NNW 18:36:33 10° NNW 18:37:30 10° NNW visible
25 Sep - 23:02:28 10° N 23:04:15 11° NNE 23:05:53 10° NE daylight
26 Sep - 01:09:00 10° NW 01:13:38 76° NE 01:17:33 10° ESE daylight
26 Sep - 09:51:25 10° SSW 10:00:32 25° SE 10:12:30 10° E visible
26 Sep - 11:58:44 10° SW 12:12:57 67° SE 12:30:49 10° ENE visible
26 Sep - 14:09:50 10° WSW 14:26:15 58° NW 14:42:51 10° NE visible
26 Sep - 16:27:45 10° WNW 16:40:30 24° NNW 16:51:29 10° NNE visible
26 Sep - 23:18:36 10° NNW 23:22:48 19° NNE 23:26:07 10° ENE daylight
27 Sep - 01:27:10 10° WNW 01:31:34 50° SW 01:35:24 10° SE daylight
27 Sep - 10:08:40 10° SSW 10:18:56 33° SE 10:32:56 10° E visible
27 Sep - 12:16:38 10° SW 12:31:11 83° SE 12:49:22 10° ENE visible
27 Sep - 14:28:52 10° W 14:44:45 46° NNW 15:00:35 10° NE visible
27 Sep - 16:49:03 10° WNW 16:59:38 19° NNW 17:08:51 10° NNE visible
27 Sep - 23:35:47 10° NNW 23:41:11 31° NNE 23:45:07 10° E daylight
28 Sep - 01:45:53 10° W 01:49:29 25° SW 01:52:47 10° SSE daylight
28 Sep - 08:22:21 10° SSE 08:25:20 11° SSE 08:28:39 10° SE daylight
28 Sep - 10:26:03 10° SSW 10:37:09 43° SE 10:52:44 10° ENE visible
28 Sep - 12:34:44 10° WSW 12:49:27 81° NW 13:07:38 10° NE visible
28 Sep - 14:48:20 10° W 15:03:26 36° NNW 15:18:12 10° NNE visible
28 Sep - 17:10:57 10° NW 17:19:04 15° NNW 17:26:15 10° N visible
28 Sep - 21:45:13 10° NNW 21:49:05 14° NNE 21:52:15 10° NE daylight
28 Sep - 23:53:25 10° NW 23:59:23 57° NNE 00:03:34 10° ESE daylight
29 Sep - 02:05:33 10° WSW 02:07:28 13° SW 02:09:19 10° S daylight
29 Sep - 08:38:04 10° S 08:43:57 17° SE 08:51:23 10° ESE daylight
29 Sep - 10:43:36 10° SW 10:55:16 56° SE 11:12:01 10° ENE visible
29 Sep - 12:53:06 10° WSW 13:07:50 65° NW 13:25:40 10° NE visible
29 Sep - 15:08:22 10° W 15:22:20 29° NNW 15:35:47 10° NNE visible
29 Sep - 17:33:09 10° NW 17:38:45 12° NNW 17:43:49 10° N visible
29 Sep - 22:01:57 10° NNW 22:07:50 21° NNE 22:12:08 10° ENE daylight
30 Sep - 00:11:28 10° WNW 00:17:23 76° SW 00:21:34 10° SE daylight
30 Sep - 08:54:49 10° SSW 09:02:18 23° SE 09:12:33 10° E daylight
30 Sep - 11:01:19 10° SW 11:13:22 72° SE 11:30:51 10° ENE visible
30 Sep - 13:11:48 10° WSW 13:26:21 52° NNW 13:43:31 10° NE visible
30 Sep - 15:28:58 10° WNW 15:41:31 23° NNW 15:53:23 10° NNE visible
30 Sep - 17:54:54 10° NNW 17:58:34 11° N 18:01:59 10° N visible
30 Sep - 20:10:22 10° N 20:14:17 12° N 20:17:39 10° NNE visible
30 Sep - 22:19:13 10° NNW 22:26:23 31° NNE 22:31:12 10° E daylight
01 Oct - 00:29:57 10° WNW 00:35:15 39° SW 00:39:12 10° SSE daylight
01 Oct - 09:11:54 10° SSW 09:20:26 32° SE 09:32:53 10° E daylight
01 Oct - 11:19:13 10° SW 11:31:31 89° SSE 11:49:20 10° NE visible
01 Oct - 13:30:52 10° W 13:45:03 41° NNW 14:01:17 10° NE visible
01 Oct - 15:50:07 10° WNW 16:00:59 19° NNW 16:11:07 10° NNE visible
01 Oct - 18:14:51 10° NNW 18:18:25 11° N 18:21:41 10° NNE visible
01 Oct - 20:27:04 10° NNW 20:33:25 17° NNE 20:38:19 10° NE visible
01 Oct - 22:36:52 10° NW 22:44:45 49° NNE 22:49:44 10° ESE daylight
02 Oct - 00:49:01 10° W 00:53:04 21° SW 00:56:21 10° SSE daylight
02 Oct - 09:29:13 10° SSW 09:38:25 44° SE 09:52:34 10° ENE visible
02 Oct - 11:37:22 10° WSW 11:49:49 73° NW 12:07:34 10° NE visible
02 Oct - 13:50:24 10° W 14:03:57 33° NNW 14:18:59 10° NNE visible
02 Oct - 16:11:37 10° NW 16:20:43 16° NNW 16:29:08 10° NNE visible
02 Oct - 18:33:05 10° NNW 18:38:10 12° N 18:42:37 10° NNE visible
02 Oct - 20:44:14 10° NNW 20:52:21 23° NNE 20:58:03 10° ENE visible
02 Oct - 22:54:51 10° NW 23:02:55 81° NE 23:07:54 10° ESE daylight
